Regional Weather Roundup
Issued by NWS

Home | Current Version | Previous Version | Graphics & Text | Print | Product List | Glossary On
Versions: 1 2 3 4 5 6 7 8 9 10 11 12 13 14 15 16 17 18 19 20 21 22 23 24 25 26 27 28 29 30 31 32 33 34 35 36 37 38 39 40 41 42 43 44 45 46 47 48 49 50
000
ASUS45 KSLC 192110
RWRUT

UTAH REGIONAL WEATHER ROUNDUP
NATIONAL WEATHER SERVICE SALT LAKE CITY UT
300 PM MDT SUN OCT 19 2014

UTZ001>011-023>025-192200-

NORTHERN UTAH

CITY           SKY/WX    TMP DP  RH WIND       PRES   REMARKS
BRIGHAM CITY   SUNNY     70  31  23 CALM      30.06F
HILL AFB       SUNNY     69  36  29 N5        30.08F
LOGAN          SUNNY     68  36  30 E3        30.07F
OGDEN          SUNNY     70  37  29 CALM      30.06F
PROVO AIRPORT  MOSUNNY   64  41  42 SW5       30.07F
SALT LAKE CITY MOSUNNY   72  36  26 NW8       30.05F
VERNAL         SUNNY     67  34  29 E3        30.11F
WENDOVER       SUNNY     64  36  34 SE5       30.07F
HEBER CITY     SUNNY     72  34  25 SW7       30.07F
WEST JORDAN    SUNNY     70  46  43 NW5       30.07F

$$

UTZ012>022-026-027-192200-

SOUTHERN/CENTRAL UTAH

CITY           SKY/WX    TMP DP  RH WIND       PRES   REMARKS
BLANDING       SUNNY     69  38  32 CALM      30.17F
BRYCE CANYON   SUNNY     62  32  32 VRB5      30.19F
CEDAR CITY     MOSUNNY   69  35  28 VRB3      30.07F
DELTA          SUNNY     72  32  22 NW5       30.05F
HANKSVILLE       N/A     73  32  21 W3        30.07F
MILFORD        SUNNY     74  37  26 N10       30.04F
MOAB/CYNLANDS  SUNNY     74  35  24 VRB3      30.03F
PRICE          SUNNY     71  29  21 S10       30.12F
ST GEORGE      CLEAR     82  37  20 N5        29.92F
KANAB            N/A     75  34  22 CALM      30.05F

$$

REGIONAL REPORTS     COLORADO/ARIZONA

CITY           SKY/WX    TMP DP  RH WIND       PRES   REMARKS
CRAIG, CO      SUNNY     71  30  21 CALM      30.13F
GRAND JUNCTION SUNNY     74  42  31 VRB3      30.05F
RIFLE          SUNNY     71  32  23 W5        30.08F
MONTROSE       MOSUNNY   72  36  26 VRB7      30.10F
CORTEZ         LGT RAIN  68  44  42 S9        30.10F
PAGE, AZ       NOT AVBL
GRAND CANYON   MOSUNNY   69  32  25 SE10G17   30.11F
KINGMAN        SUNNY     83  40  21 VRB3      29.92F
FLAGSTAFF      MOSUNNY   64  36  35 VRB6      30.14F

$$

REGIONAL REPORTS    NEVADA/IDAHO/WYOMING

CITY           SKY/WX    TMP DP  RH WIND       PRES   REMARKS
LAS VEGAS, NV  MOSUNNY   86  38  18 W3        29.84F
ELY            CLOUDY    71  33  24 SE15G21   30.09F
ELKO           SUNNY     74  29  19 VRB6      30.02F
POCATELLO, ID  SUNNY     71  37  28 E8        30.06F
BURLEY         SUNNY     75  35  23 E10       30.00F
EVANSTON, WY   MOSUNNY   65  26  23 W7        30.18F
ROCK SPRINGS   SUNNY     65  29  25 N8        30.17F
KEMMERER       SUNNY     63  23  22 S7        30.20F

$$



USA.gov is the U.S. government's official web portal to all federal, state and local government web resources and services.